Dewpoint
-13 -13 -12 -13 -11 -12 -13 -13 -13 -12 -12 -12 -11 -11 -12 -12 -12 -12 -11 -10 -11 -11 -10 -9 -8 -9 -9 -9 -8 -7 -7 -7 -8 -7 -7 -6 -7 -7 -7 -7 -8 -10 -10 -10 -10 -10 -11 -11 -11 -11 -11 -11 -10 -9 -10 -4 -10 -11 -12 -11 -11 -10 4
-13 -11 -12 -12 -13 -13 -13 -12 -13 -13 -12 -11 -11 -12 -12 -11 -11 -11 -11 -10 -11 -10 -9 -9 -8 -9 -9 -9 -8 -8 -8 -7 -7 -7 -7 -7 -7 -7 -7 -7 -8 -9 -9 -10 -10 -10 -10 -10 -10 -11 -11 -11 -11 -10 -8 -9 -10 -10 -11 -10 -11 -10 -11
-11 -11 -11 -12 -11 -12 -13 -12 -12 -12 -11 -10 -10 -11 -11 -11 -11 -11 -11 -10 -10 -10 -10 -9 -8 -8 -8 -9 -8 -8 -8 -8 -8 -7 -7 -8 -7 -8 -8 -8 -8 -8 -10 -10 -10 -10 -11 -11 -10 -11 -11 -11 -10 -9 -9 -9 -9 -8 -8 -8 -10 -9 -9
-11 -11 -12 -12 -11 -11 -12 -12 -11 -10 -10 -9 -10 -10 -9 -10 -10 -10 -10 -9 -9 -10 -9 -8 -9 -9 -8 -8 -8 -8 -8 -8 -7 -7 -7 -8 -8 -7 -8 -9 -9 -9 -8 -9 -10 -10 -10 -10 -10 -10 -10 -10 -9 -9 -9 -9 -7 -7 -6 -7 -6 -8 -8
-10 -11 -11 -12 -11 -11 -12 -11 -10 -10 -10 -10 -10 -10 -9 -8 -7 -7 -8 -8 -8 -6 -7 -8 -9 -8 -8 -9 -9 -10 -9 -8 -9 -8 -8 -8 -7 -7 -7 -8 -8 -8 -7 -8 -9 -10 -10 -10 -10 -10 -10 -10 -11 -11 -10 -9 -9 -7 -6 -6 -7 -6 -7
-11 -9 -11 -11 -11 -11 -11 -10 -10 -10 -10 -10 -10 -9 -9 -7 -7 -8 -8 -8 -8 -8 -8 -8 -9 -9 -8 -9 -10 -10 -10 -10 -10 -10 -10 -9 -9 -8 -8 -8 -8 -8 -8 -8 -9 -9 -10 -10 -11 -11 -11 -11 -11 -12 -12 -9 -8 -7 -7 -6 -7 -6 -6
-10 -9 -9 -9 -9 -9 -9 -9 -9 -9 -10 -9 -9 -8 -8 -8 -8 -9 -8 -8 -8 -8 -8 -8 -8 -9 -9 -10 -10 -10 -11 -11 -11 -11 -11 -10 -10 -9 -9 -9 -9 -9 -8 -8 -9 -9 -10 -11 -10 -11 -12 -12 -11 -11 -12 -12 -11 -10 -8 -7 -7 -7 -6
-9 -9 -8 -9 -9 -8 -8 -8 -9 -9 -9 -8 -8 -8 -9 -8 -9 -9 -9 -8 -8 -8 -9 -9 -9 -9 -9 -9 -9 -10 -10 -10 -11 -10 -11 -10 -10 -10 -10 -10 -10 -9 -9 -9 -10 -10 -11 -11 -11 -11 -11 -11 -11 -10 -10 -11 -11 -11 -11 -9 -8 -7 -7
-8 -8 -8 -8 -8 -8 -8 -8 -8 -8 -8 -9 -9 -10 -10 -9 -9 -8 -9 -9 -9 -9 -9 -9 -9 -9 -9 -8 -6 -6 -6 -6 -6 -10 -10 -10 -10 -10 -10 -10 -9 -9 -9 -10 -11 -11 -11 -11 -11 -11 -12 -12 -12 -12 -12 -12 -11 -10 -10 -9 -9 -8 -6
-8 -8 -8 -9 -8 -9 -10 -9 -9 -6 -2 2 -4 -7 -8 -8 -7 -7 -7 -7 -8 -8 -9 -9 -9 -9 -6 -5 -4 -4 -3 -2 -2 -2 -5 -8 -9 -9 -9 -9 -10 -10 -10 -10 -11 -12 -12 -12 -12 -11 -11 -12 -12 -12 -11 -11 -11 -11 -11 -10 -9 -9 -7
-8 -9 -9 -10 -10 -10 -10 -10 -9 -3 7 9 11 4 2 0 -0 -1 -1 -2 -4 -5 -5 -6 -7 -8 -6 -4 -2 -3 -1 -1 -0 -0 -0 -0 -0 -1 -4 -7 -8 -9 -8 -9 -10 -10 -11 -11 -11 -11 -11 -11 -11 -11 -11 -11 -11 -10 -10 -10 -11 -12 -9
-10 -10 -10 -10 -11 -11 -10 -10 -5 7 9 11 11 9 2 2 1 1 1 0 -0 -2 -2 -3 -3 -5 -6 -6 -6 -5 -5 -3 -2 -2 -2 -1 -1 -1 1 4 -1 -5 -7 -7 -8 -8 -9 -9 -9 -9 -9 -9 -9 -9 -9 -9 -9 -9 -9 -10 -10 -10 -10
-8 -10 -10 -11 -10 -11 -11 -11 2 8 10 11 11 11 6 1 1 1 1 0 -0 -1 -2 -3 -4 -6 -7 -8 -3 -3 -5 -7 -7 -3 -3 -3 -2 -2 -1 7 7 4 -1 -2 -4 -5 -5 -5 -5 -6 -6 -6 -6 -6 -8 -8 -8 -8 -8 -8 -8 -8 -8
-10 -9 -11 -11 -12 -11 -11 -11 -7 7 10 11 11 11 7 1 2 2 1 1 0 -2 -4 -6 -7 -8 -9 -9 -9 -8 -8 -9 -9 -9 -9 -8 -7 -7 -5 -2 1 -0 0 -0 -3 -4 -5 -4 -4 -5 -5 -5 -2 -5 -6 -6 -7 -7 -7 -7 -6 -6 -5
-11 -11 -11 -12 -12 -12 -12 -12 3 9 10 11 11 11 8 2 2 1 -0 -1 -3 -4 -6 -7 -8 -8 -9 -9 -10 -10 -9 -11 -11 -11 -11 -11 -11 -10 -10 -9 -9 -9 -8 -8 -8 -8 -8 -8 -7 -7 -6 -5 -4 -5 -5 -4 -5 -4 -4 -3 -2 -2 -2
-12 -12 -12 -11 -12 -13 -12 -12 6 9 11 11 11 11 3 3 2 1 -1 -4 -6 -8 -8 -8 -9 -9 -10 -10 -10 -8 -2 -2 -6 -9 -11 -11 -11 -11 -11 -10 -5 5 3 -3 -7 -8 -8 -7 -7 3 -5 -4 -4 -4 -3 -2 -2 -1 -2 -2 -3 -4 -3
-11 -11 -11 -11 -12 -13 -12 -12 -1 7 9 10 11 8 2 1 -1 -3 -4 -5 -7 -9 -9 -9 -10 -10 -10 -10 -11 -8 6 8 2 -4 -5 -7 -8 -9 -10 -10 -9 3 4 7 5 6 9 11 8 7 8 9 9 6 6 2 -1 -3 -2 -4 -5 -5 -5
-11 -11 -11 -11 -12 -12 -12 -12 -7 5 8 10 11 7 2 2 -0 -1 -2 -4 -7 -9 -9 -9 -5 -5 -9 -10 -10 2 7 8 0 -1 -2 -5 -6 -7 -7 -7 -6 -6 -4 9 9 9 9 8 8 7 9 7 7 8 5 -4 -7 -8 -7 -9 -9 -10 -10
-12 -12 -11 -11 -12 -9 -10 -11 -9 4 7 9 9 5 1 -0 -2 -4 -5 -6 -7 -9 -9 -9 -6 -4 -5 -6 -5 7 8 6 -2 -2 -2 -3 -5 -6 -7 -6 -5 -4 -4 -4 -4 -7 -9 -9 -3 -11 -12 -10 -7 -2 -4 -8 -10 -9 -11 -12 -12 -11 -11
-13 -13 -12 -12 -12 -13 -12 -13 -13 -10 5 7 9 9 1 0 -2 -3 -4 -5 -7 -10 -11 -11 -10 -7 -3 7 5 8 8 3 4 -1 -2 -2 -3 -3 -4 -2 -2 -2 -1 -5 -7 -11 -15 -14 -13 -13 -14 -15 -14 -13 -11 -10 -9 -9 -9 -10 -11 -10 -10
-14 -14 -14 -14 -13 -14 -14 -14 -15 -13 4 6 8 9 7 -0 -1 -2 -4 -6 -7 -9 -10 -10 -10 -10 -7 1 7 7 7 6 8 6 -1 -1 -3 -3 -1 -0 -7 -9 -6 -11 -13 -14 -14 -15 -15 -15 -15 -15 -15 -14 -13 -12 -10 -10 -9 -10 -11 -11 -11
-15 -16 -15 -15 -15 -15 -15 -14 -12 -14 -3 4 6 8 8 1 -0 -1 -2 -4 -6 -7 -8 -9 -9 -10 -7 -5 5 7 6 6 7 6 -3 -2 4 5 4 -7 -9 -13 -16 -15 -16 -18 -17 -17 -18 -17 -17 -16 -15 -14 -13 -14 -13 -12 -12 -11 -10 -11 -11
-19 -18 -18 -17 -16 -16 -16 -17 -16 -12 -13 -5 5 7 8 7 3 6 -1 -3 -4 -4 -5 -5 -7 -6 -4 -2 6 4 4 4 6 2 -2 4 3 3 -2 -9 -18 -17 -19 -21 -20 -21 -21 -20 -20 -19 -18 -17 -17 -16 -16 -15 -14 -14 -13 -11 -11 -10 -10
-20 -20 -20 -20 -18 -18 -18 -18 -17 -13 -12 -12 -1 5 7 8 8 3 -3 -2 -3 -3 -3 -5 -9 -9 4 -0 2 1 4 1 -1 -2 3 3 1 -7 -10 -19 -21 -23 -23 -21 -22 -21 -21 -21 -21 -21 -20 -18 -17 -15 -16 -15 -14 -14 -14 -14 -14 -13 -11
-20 -20 -20 -19 -19 -19 -18 -18 -18 -18 -15 -12 -11 3 7 8 7 1 -1 -4 -5 -6 -10 -5 3 4 2 0 1 2 3 -6 -9 -7 -6 -8 -9 -10 -25 -24 -25 -25 -25 -24 -23 -22 -21 -21 -19 -19 -18 -16 -15 -15 -15 -16 -16 -15 -15 -14 -14 -13 -12
-20 -20 -20 -20 -19 -19 -19 -18 -18 -18 -18 -14 -13 -12 -3 4 -0 -2 -3 -4 -5 -4 -4 -2 1 -3 -3 -4 -5 -8 -15 -14 -16 -10 -11 -13 -14 -25 -25 -25 -26 -27 -26 -24 -23 -22 -21 -20 -20 -20 -19 -17 -17 -18 -18 -18 -17 -17 -16 -15 -14 -15 -15
-19 -20 -20 -20 -20 -19 -19 -19 -19 -18 -18 -17 -17 -17 -15 -14 -14 -10 -8 -9 -10 -7 -9 -9 -8 -7 -6 -5 -7 -9 -10 -12 -15 -19 -21 -25 -25 -25 -26 -24 -26 -25 -24 -23 -23 -21 -21 -20 -20 -19 -18 -20 -20 -20 -19 -18 -17 -16 -17 -16 -16 -16 -16
-20 -20 -20 -20 -20 -20 -20 -19 -18 -18 -17 -17 -16 -16 -15 -16 -15 -16 -15 -15 -15 -14 -13 -12 -7 -10 -21 -22 -23 -25 -27 -28 -27 -25 -24 -25 -28 -26 -24 -19 -16 -16 -21 -24 -24 -23 -22 -21 -21 -22 -22 -21 -21 -20 -20 -18 -16 -17 -18 -17 -16 -17 -18
-17 -17 -18 -18 -18 -18 -18 -17 -16 -15 -11 -13 -10 -12 -14 -14 -14 -15 -14 -12 -9 -10 -14 -16 -21 -23 -24 -26 -25 -27 -28 -28 -28 -28 -28 -29 -30 -31 -30 -30 -28 -29 -27 -26 -25 -25 -24 -23 -23 -23 -22 -21 -22 -21 -20 -18 -18 -18 -18 -17 -18 -19 -19
-11 -13 -13 -13 -13 -13 -14 -14 -12 -5 6 6 3 3 -2 -2 3 -1 -5 -5 -5 -5 -18 -24 -25 -28 -29 -28 -30 -29 -29 -28 -30 -29 -30 -31 -22 -24 -29 -28 -28 -28 -27 -26 -24 -24 -24 -24 -24 -24 -24 -23 -23 -22 -20 -18 -17 -19 -18 -20 -21 -21 -21
9 8 2 -0 -3 -5 -4 -4 -3 -1 6 5 5 5 3 1 -3 -2 -1 -3 -13 -22 -24 -27 -27 -28 -30 -28 -31 -30 -29 -30 -30 -29 -30 -30 -31 -31 -28 -25 -28 -29 -26 -25 -25 -25 -25 -24 -24 -25 -24 -24 -23 -21 -21 -21 -19 -19 -20 -21 -22 -22 -23
9 8 4 2 -1 -2 -3 -2 -2 -4 4 5 4 4 4 4 4 4 -1 -6 -9 -25 -29 -30 -29 -31 -31 -32 -32 -31 -30 -30 -32 -31 -31 -32 -32 -31 -30 -28 -29 -28 -30 -28 -28 -28 -26 -26 -26 -25 -24 -23 -22 -21 -22 -22 -22 -22 -22 -22 -23 -23 -23
6 7 6 6 6 6 5 0 -2 -1 5 4 4 4 -3 1 2 -5 -6 -9 -22 -28 -31 -34 -34 -31 -33 -33 -30 -30 -33 -31 -33 -32 -31 -33 -32 -31 -32 -30 -29 -27 -29 -28 -28 -27 -27 -26 -25 -24 -23 -23 -22 -22 -24 -23 -23 -23 -23 -24 -25 -24 -23
-1 -0 -7 -4 1 2 3 4 3 3 1 2 2 1 -0 -7 -9 1 -0 -12 -25 -30 -32 -35 -35 -31 -33 -33 -32 -32 -32 -33 -32 -32 -32 -32 -31 -31 -32 -31 -31 -33 -30 -29 -28 -29 -28 -27 -26 -25 -25 -25 -25 -24 -23 -24 -23 -24 -25 -26 -26 -26 -26
-20 -16 -14 -15 -14 -13 -12 -12 -11 -11 -11 -11 -11 -11 -5 3 -10 -15 -19 -26 -30 -30 -32 -33 -32 -32 -31 -33 -32 -31 -31 -32 -34 -33 -33 -32 -32 -32 -33 -32 -32 -31 -31 -31 -31 -30 -30 -28 -27 -26 -24 -24 -25 -26 -26 -26 -25 -25 -25 -26 -26 -25 -25
-20 -21 -15 -15 -14 -14 -13 -12 -12 -12 -12 -3 2 0 -5 -19 -23 -24 -25 -25 -29 -32 -30 -30 -30 -32 -31 -31 -34 -32 -33 -32 -32 -32 -32 -34 -33 -32 -32 -32 -33 -31 -32 -31 -31 -30 -29 -27 -28 -27 -27 -27 -27 -27 -26 -25 -25 -25 -25 -25 -25 -24 -23